Regional Weather Roundup
Issued by NWS Northern Indiana

Home | Current Version | Previous Version | Graphics & Text | Print | Product List | Glossary On
Versions: 1 2 3 4 5 6 7 8 9 10 11 12 13 14 15 16 17 18 19 20 21 22 23 24 25 26 27 28 29 30 31 32 33 34 35 36 37 38 39 40 41 42 43 44 45 46 47 48 49 50
000
ASUS43 KIWX 280000
RWRIWX

KIWX WEATHER ROUNDUP
NATIONAL WEATHER SERVICE NORTHERN INDIANA
800 PM EDT MON MAR 27 2017

NOTE: "FAIR" INDICATES FEW OR NO CLOUDS BELOW 12,000 FEET WITH NO
SIGNIFICANT WEATHER AND/OR OBSTRUCTIONS TO VISIBILITY.

* THESE STATIONS ARE NOT UNDER NWS QUALITY CONTROL. THEY ALSO MAY NOT
  REPORT WEATHER SUCH AS PRECIPITATION OR FOG.

INZ001>027-280100-
NORTHERN INDIANA

CITY           SKY/WX    TMP DP  RH WIND       PRES   REMARKS
GARY*          CLOUDY    41  39  93 N8        29.92S FOG
SOUTH BEND     CLOUDY    47  45  93 N12       29.91R
6HR MIN TEMP:  47; 6HR MAX TEMP:  55; 6HR PCP: TRACE;

ELKHART*       CLOUDY    54  48  82 N7        29.90R
GOSHEN         CLOUDY    55  50  83 NW5       29.88S
6HR MIN TEMP:  55; 6HR MAX TEMP:  58; 6HR PCP:  0.02;

MONTICELLO*    CLOUDY    56  52  85 NE8       29.85S
6HR MIN TEMP:  56; 6HR MAX TEMP:  60;

ANGOLA*        CLOUDY    55  46  71 CALM      29.88S
FORT WAYNE     LGT RAIN  57  51  80 N5        29.87S
6HR MIN TEMP:  57; 6HR MAX TEMP:  61; 6HR PCP: TRACE;


$$
INZ028>050-280100-
CENTRAL INDIANA

CITY           SKY/WX    TMP DP  RH WIND       PRES   REMARKS
LAFAYETTE      CLOUDY    55  55 100 NE5       29.84R
6HR MIN TEMP:  54; 6HR MAX TEMP:  61; 6HR PCP:  0.16;

KOKOMO*        LGT RAIN  56  55  97 E6        29.86F
6HR MIN TEMP:  56; 6HR MAX TEMP:  63; 6HR PCP:  0.06;

MUNCIE*        CLOUDY    60  53  77 E5        29.84F
6HR MIN TEMP:  60; 6HR MAX TEMP:  65; 6HR PCP:  0.01;

INDIANAPOLIS   CLOUDY    60  53  77 E3        29.81S
6HR MIN TEMP:  58; 6HR MAX TEMP:  61; 6HR PCP:  0.02;


$$
MIZ043>046-050>051-056>058-064>065-071>073-077>080-280100-
SOUTHWEST LOWER MICHIGAN

CITY           SKY/WX    TMP DP  RH WIND       PRES   REMARKS
BATTLE CREEK   CLOUDY    51  47  86 NW8       29.92R
6HR MIN TEMP:  51; 6HR MAX TEMP:  54;

BENTON HARBOR  CLOUDY    43  37  79 VRB3      29.93R
6HR MIN TEMP:  42; 6HR MAX TEMP:  50;

COLDWATER*     CLOUDY    53  50  88 N7        29.90R
6HR MIN TEMP:  53; 6HR MAX TEMP:  57;

HILLSDALE*     LGT RAIN  52  46  82 W3        29.88S
HOLLAND        CLOUDY    42  36  79 NW6       29.94R
6HR MIN TEMP:  42; 6HR MAX TEMP:  47;

GRAND RAPIDS   CLOUDY    48  43  82 NW9       29.92R
6HR MIN TEMP:  48; 6HR MAX TEMP:  52;

KALAMAZOO      CLOUDY    50  44  80 N9        29.92R
6HR MIN TEMP:  50; 6HR MAX TEMP:  55;

STURGIS*       CLOUDY    52  49  89 NE5       29.89R
6HR MIN TEMP:  52; 6HR MAX TEMP:  56;

THREE RIVERS*  CLOUDY    52  48  85 N5        29.90S
6HR MIN TEMP:  52; 6HR MAX TEMP:  56;


$$
OHZ001>008-015>018-024>025-280100-
NORTHWEST OHIO

CITY           SKY/WX    TMP DP  RH WIND       PRES   REMARKS
DEFIANCE       CLOUDY    57  49  74 CALM      29.88S
6HR MIN TEMP:  56; 6HR MAX TEMP:  59;

FINDLAY        CLOUDY    60  50  69 S3        29.87S
6HR MIN TEMP:  59; 6HR MAX TEMP:  63;

TOLEDO EXPRESS CLOUDY    57  49  74 CALM      29.88S
6HR MIN TEMP:  57; 6HR MAX TEMP:  60;

TOLEDO METCALF CLOUDY    58  51  78 CALM      29.89S
6HR MIN TEMP:  58; 6HR MAX TEMP:  61;

LIMA           LGT RAIN  56  54  93 CALM      29.87S
6HR MIN TEMP:  56; 6HR MAX TEMP:  62; 6HR PCP:  0.01;


$$
AND FOR LAKE MICHIGAN COASTAL AND OPEN LAKE BUOY OBSERVATIONS

STATION/POSITION TEMP    WIND        PRES    VSBY  WAVE
                 AIR SEA DIR/SP/G                  HT/PER
                 (F)     (DEG/KT/KT) (MB)    (MI)  (FT/S)
CALUMET HARBOR    39      10/  6/  9 1012.8R
MICHIGAN CITY     39      40/ 13/ 15   N/A
BURNS HARBOR      40      70/ 11/ 13 1013.5S
SAINT JOSEPH      41      40/  5/ 10 1013.5

$$
&&




USA.gov is the U.S. government's official web portal to all federal, state and local government web resources and services.